TimeMST,TemperatureF,Dew PointF,Humidity,Sea Level PressureIn,VisibilityMPH,Wind Direction,Wind SpeedMPH,Gust SpeedMPH,PrecipitationIn,Events,Conditions,WindDirDegrees,DateUTC
12:35 AM,33.8,12.2,41,30.38,10.0,Calm,Calm,-,N/A,,Clear,0,2013-01-20 07:35:00
12:55 AM,33.8,12.2,41,30.38,10.0,SSE,4.6,-,N/A,,Clear,160,2013-01-20 07:55:00
1:15 AM,33.8,12.2,41,30.38,10.0,Calm,Calm,-,N/A,,Clear,0,2013-01-20 08:15:00
1:35 AM,33.8,12.2,41,30.38,10.0,SSW,3.5,-,N/A,,Clear,210,2013-01-20 08:35:00
1:55 AM,33.8,12.2,41,30.39,10.0,SE,3.5,-,N/A,,Clear,140,2013-01-20 08:55:00
2:15 AM,32.0,12.2,44,30.39,10.0,South,3.5,-,N/A,,Clear,180,2013-01-20 09:15:00
2:35 AM,30.2,12.2,47,30.40,10.0,Calm,Calm,-,N/A,,Clear,0,2013-01-20 09:35:00
2:55 AM,30.2,12.2,47,30.40,10.0,SSE,3.5,-,N/A,,Clear,160,2013-01-20 09:55:00
3:15 AM,30.2,12.2,47,30.40,10.0,SE,4.6,-,N/A,,Clear,140,2013-01-20 10:15:00
3:35 AM,30.2,12.2,47,30.39,10.0,SSE,4.6,-,N/A,,Clear,150,2013-01-20 10:35:00
3:55 AM,30.2,12.2,47,30.39,10.0,Calm,Calm,-,N/A,,Clear,0,2013-01-20 10:55:00
4:15 AM,30.2,12.2,47,30.38,10.0,South,4.6,-,N/A,,Clear,170,2013-01-20 11:15:00
4:35 AM,28.4,12.2,51,30.38,10.0,Calm,Calm,-,N/A,,Clear,0,2013-01-20 11:35:00
4:55 AM,30.2,12.2,47,30.38,10.0,Calm,Calm,-,N/A,,Clear,0,2013-01-20 11:55:00
5:15 AM,26.6,10.4,51,30.39,10.0,Calm,Calm,-,N/A,,Clear,0,2013-01-20 12:15:00
5:35 AM,26.6,12.2,55,30.39,10.0,Calm,Calm,-,N/A,,Clear,0,2013-01-20 12:35:00
5:55 AM,26.6,10.4,51,30.38,10.0,Calm,Calm,-,N/A,,Clear,0,2013-01-20 12:55:00
6:15 AM,24.8,10.4,54,30.39,10.0,SSW,3.5,-,N/A,,Clear,200,2013-01-20 13:15:00
6:35 AM,24.8,10.4,54,30.38,10.0,West,3.5,-,N/A,,Clear,260,2013-01-20 13:35:00
6:55 AM,28.4,10.4,47,30.38,10.0,Calm,Calm,-,N/A,,Clear,0,2013-01-20 13:55:00
7:35 AM,24.8,10.4,54,30.39,10.0,Calm,Calm,-,N/A,,Clear,0,2013-01-20 14:35:00
7:55 AM,24.8,12.2,59,30.39,10.0,Calm,Calm,-,N/A,,Clear,0,2013-01-20 14:55:00
8:15 AM,24.8,12.2,59,30.39,10.0,SSE,4.6,-,N/A,,Clear,160,2013-01-20 15:15:00
8:35 AM,26.6,12.2,55,30.40,10.0,Calm,Calm,-,N/A,,Clear,0,2013-01-20 15:35:00
8:55 AM,26.6,12.2,55,30.40,10.0,Calm,Calm,-,N/A,,Clear,0,2013-01-20 15:55:00
9:15 AM,28.4,12.2,51,30.41,10.0,Calm,Calm,-,N/A,,Clear,0,2013-01-20 16:15:00
9:35 AM,30.2,14.0,51,30.41,10.0,Calm,Calm,-,N/A,,Clear,0,2013-01-20 16:35:00
9:55 AM,33.8,14.0,44,30.41,10.0,Calm,Calm,-,N/A,,Clear,0,2013-01-20 16:55:00
10:15 AM,35.6,15.8,44,30.41,10.0,Calm,Calm,-,N/A,,Clear,0,2013-01-20 17:15:00
10:35 AM,37.4,12.2,36,30.41,10.0,SSW,3.5,-,N/A,,Clear,200,2013-01-20 17:35:00
11:15 AM,39.2,15.8,39,30.40,10.0,SW,3.5,-,N/A,,Clear,220,2013-01-20 18:15:00
11:35 AM,41.0,15.8,36,30.39,10.0,Calm,Calm,-,N/A,,Clear,0,2013-01-20 18:35:00
11:55 AM,41.0,15.8,36,30.38,10.0,West,3.5,-,N/A,,Clear,280,2013-01-20 18:55:00
12:15 PM,42.8,15.8,34,30.36,10.0,Calm,Calm,-,N/A,,Clear,0,2013-01-20 19:15:00
12:35 PM,44.6,15.8,31,30.35,10.0,Calm,Calm,-,N/A,,Clear,0,2013-01-20 19:35:00
12:55 PM,44.6,15.8,31,30.33,10.0,Calm,Calm,-,N/A,,Clear,0,2013-01-20 19:55:00
1:15 PM,46.4,17.6,32,30.31,10.0,Calm,Calm,-,N/A,,Clear,0,2013-01-20 20:15:00
1:35 PM,48.2,17.6,30,30.30,10.0,Calm,Calm,-,N/A,,Clear,0,2013-01-20 20:35:00
1:55 PM,48.2,15.8,27,30.29,10.0,Calm,Calm,-,N/A,,Clear,0,2013-01-20 20:55:00
2:16 PM,51.8,15.8,24,30.28,10.0,Calm,Calm,-,N/A,,Clear,0,2013-01-20 21:16:00
2:35 PM,51.8,17.6,26,30.28,10.0,Calm,Calm,-,N/A,,Clear,0,2013-01-20 21:35:00
2:55 PM,51.8,15.8,24,30.27,10.0,Calm,Calm,-,N/A,,Clear,0,2013-01-20 21:55:00
3:15 PM,53.6,15.8,22,30.27,10.0,West,4.6,-,N/A,,Clear,280,2013-01-20 22:15:00
3:35 PM,53.6,15.8,22,30.27,10.0,WNW,4.6,-,N/A,,Clear,290,2013-01-20 22:35:00
3:55 PM,53.6,15.8,22,30.26,10.0,Calm,Calm,-,N/A,,Clear,0,2013-01-20 22:55:00
4:15 PM,53.6,15.8,22,30.26,10.0,Calm,Calm,-,N/A,,Clear,0,2013-01-20 23:15:00
4:35 PM,53.6,14.0,21,30.26,10.0,Calm,Calm,-,N/A,,Clear,0,2013-01-20 23:35:00
4:55 PM,59.0,15.8,19,30.25,10.0,Calm,Calm,-,N/A,,Clear,0,2013-01-20 23:55:00
5:15 PM,57.2,15.8,20,30.26,10.0,Calm,Calm,-,N/A,,Clear,0,2013-01-21 00:15:00
5:35 PM,53.6,12.2,19,30.26,10.0,North,3.5,-,N/A,,Clear,350,2013-01-21 00:35:00
5:55 PM,50.0,14.0,24,30.27,10.0,North,4.6,-,N/A,,Clear,350,2013-01-21 00:55:00
6:15 PM,50.0,14.0,24,30.26,10.0,North,4.6,-,N/A,,Clear,350,2013-01-21 01:15:00
6:35 PM,50.0,14.0,24,30.27,10.0,North,3.5,-,N/A,,Clear,360,2013-01-21 01:35:00
6:55 PM,48.2,12.2,24,30.27,10.0,NNE,4.6,-,N/A,,Clear,30,2013-01-21 01:55:00
7:15 PM,42.8,12.2,29,30.28,10.0,Calm,Calm,-,N/A,,Clear,0,2013-01-21 02:15:00
7:35 PM,44.6,12.2,27,30.28,10.0,SSE,4.6,-,N/A,,Clear,160,2013-01-21 02:35:00
7:55 PM,42.8,10.4,27,30.29,10.0,Calm,Calm,-,N/A,,Clear,0,2013-01-21 02:55:00
8:15 PM,41.0,10.4,29,30.29,10.0,Calm,Calm,-,N/A,,Clear,0,2013-01-21 03:15:00
8:35 PM,41.0,10.4,29,30.30,10.0,West,3.5,-,N/A,,Clear,260,2013-01-21 03:35:00
8:55 PM,42.8,12.2,29,30.31,10.0,SW,3.5,-,N/A,,Clear,220,2013-01-21 03:55:00
9:15 PM,39.2,10.4,31,30.31,10.0,WSW,3.5,-,N/A,,Clear,240,2013-01-21 04:15:00
9:35 PM,42.8,10.4,27,30.31,10.0,Calm,Calm,-,N/A,,Clear,0,2013-01-21 04:35:00
9:55 PM,42.8,10.4,27,30.32,10.0,NE,8.1,-,N/A,,Clear,50,2013-01-21 04:55:00
10:15 PM,42.8,10.4,27,30.32,10.0,NE,18.4,-,N/A,,Clear,50,2013-01-21 05:15:00
10:35 PM,44.6,10.4,25,30.33,10.0,NNE,11.5,-,N/A,,Clear,30,2013-01-21 05:35:00
11:35 PM,39.2,10.4,31,30.34,10.0,NE,6.9,-,N/A,,Clear,50,2013-01-21 06:35:00
11:55 PM,39.2,10.4,31,30.34,10.0,Calm,Calm,-,N/A,,Clear,0,2013-01-21 06:55:00